Weather History for KIKT - May, 2014

Change the Weather History Date:

Saturday, May 17, 2014

  Actual Average Record
Temperature  
Mean Temperature 72 °F -  
Max Temperature 75 °F - - ()
Min Temperature 69 °F - - ()
Cooling Degree Days 7    
Growing Degree Days 22 (Base 50)    
Moisture  
Dew Point 57 °F    
Average Humidity 58    
Maximum Humidity 69    
Minimum Humidity 49    
Precipitation  
Precipitation 0.00 in - - ()
Sea Level Pressure  
Sea Level Pressure 30.15 in    
Wind  
Wind Speed 7 mph (ESE)    
Max Wind Speed 13 mph    
Max Gust Speed -    
Visibility 10 miles    
Events      
T = Trace of Precipitation, MM = Missing Value Source: NWS Daily Summary

Daily Weather History Graph

Daily Weather History Graph

Search for Another Location

Airport or City:

Trip Planner

Search our weather history database for the weather conditions in past years. The results will help you decide how hot, cold, wet, or windy it might be!

Date:

Astronomy

May. 17, 2014 Rise Set
Actual Time 6:01 AM CDT 7:38 PM CDT
Civil Twilight 5:35 AM CDT 8:03 PM CDT
Nautical Twilight 5:04 AM CDT 8:34 PM CDT
Astronomical Twilight 4:32 AM CDT 9:07 PM CDT
Moon 10:40 PM CDT (5/17) 8:43 AM CDT (5/17)
Length of Visible Light 14h 28m
Length of Day
13h 36m
Waning Gibbous, 89% of the Moon is Illuminated
May 17
Waning Gibbous
May 21
Last Quarter
May 28
New
Jun 5
First Quarter
Jun 12
Full

Hourly Weather History & Observations

Time (CDT) Temp. Dew Point Humidity Pressure Visibility Wind Dir Wind Speed Gust Speed Precip Events Conditions
12:20 AM 69.8 °F 51.8 °F 53% 30.17 in 10.0 mi Variable 5.8 mph - N/A   Clear
12:35 AM 69.8 °F 51.8 °F 53% 30.17 in 10.0 mi West 6.9 mph - N/A   Clear
1:00 AM 69.8 °F 51.8 °F 53% 30.16 in 10.0 mi SW 8.1 mph - N/A   Clear
1:15 AM 69.8 °F 50.0 °F 49% 30.16 in 10.0 mi Variable 4.6 mph - N/A   Clear
1:55 AM 69.8 °F 51.8 °F 53% 30.14 in 10.0 mi Variable 5.8 mph - N/A   Clear
2:15 AM 69.8 °F 53.6 °F 56% 30.14 in 10.0 mi Variable 6.9 mph - N/A   Clear
2:40 AM 69.8 °F 53.6 °F 56% 30.14 in 10.0 mi Variable 6.9 mph - N/A   Clear
2:55 AM 69.8 °F 53.6 °F 56% 30.14 in 10.0 mi Variable 5.8 mph - N/A   Clear
3:15 AM 69.8 °F 53.6 °F 56% 30.13 in 10.0 mi Variable 4.6 mph - N/A   Clear
3:40 AM 69.8 °F 53.6 °F 56% 30.13 in 10.0 mi SW 6.9 mph - N/A   Clear
3:55 AM 69.8 °F 53.6 °F 56% 30.13 in 10.0 mi Calm Calm - N/A   Clear
4:15 AM 69.8 °F 55.4 °F 60% 30.13 in 10.0 mi Variable 3.5 mph - N/A   Clear
4:40 AM 69.8 °F 55.4 °F 60% 30.13 in 10.0 mi Calm Calm - N/A   Clear
4:55 AM 69.8 °F 53.6 °F 56% 30.13 in 10.0 mi SSW 4.6 mph - N/A   Clear
5:15 AM 69.8 °F 55.4 °F 60% 30.13 in 10.0 mi Calm Calm - N/A   Clear
5:40 AM 69.8 °F 55.4 °F 60% 30.14 in 10.0 mi Calm Calm - N/A   Clear
5:55 AM 69.8 °F 55.4 °F 60% 30.14 in 10.0 mi Calm Calm - N/A   Clear
6:20 AM 69.8 °F 55.4 °F 60% 30.15 in - Calm Calm - N/A   Clear
6:35 AM 71.6 °F 55.4 °F 57% 30.15 in 10.0 mi Calm Calm - N/A   Clear
7:00 AM 73.4 °F 55.4 °F 53% 30.15 in 10.0 mi Calm Calm - N/A   Clear
7:15 AM 75.2 °F 55.4 °F 50% 30.16 in 10.0 mi SE 3.5 mph - N/A   Clear
7:35 AM 75.2 °F 55.4 °F 50% 30.16 in 10.0 mi ESE 5.8 mph - N/A   Clear
8:00 AM 75.2 °F 55.4 °F 50% 30.16 in 10.0 mi East 5.8 mph - N/A   Clear
8:15 AM 75.2 °F 55.4 °F 50% 30.16 in 10.0 mi East 5.8 mph - N/A   Clear
8:40 AM 75.2 °F 57.2 °F 53% 30.17 in 10.0 mi ESE 6.9 mph - N/A   Clear
8:55 AM 75.2 °F 57.2 °F 53% 30.17 in 10.0 mi East 5.8 mph - N/A   Clear
9:20 AM 75.2 °F 55.4 °F 50% 30.17 in 10.0 mi East 8.1 mph - N/A   Clear
9:35 AM 73.4 °F 55.4 °F 53% 30.17 in 10.0 mi East 8.1 mph - N/A   Clear
9:55 AM 73.4 °F 57.2 °F 57% 30.18 in 10.0 mi East 8.1 mph - N/A   Clear
10:15 AM 75.2 °F 57.2 °F 53% 30.18 in 10.0 mi East 10.4 mph - N/A   Clear
10:40 AM 75.2 °F 57.2 °F 53% 30.19 in 10.0 mi ENE 10.4 mph - N/A   Clear
11:00 AM 75.2 °F 57.2 °F 53% 30.19 in 10.0 mi ENE 10.4 mph - N/A   Clear
11:20 AM 75.2 °F 57.2 °F 53% 30.19 in 10.0 mi ENE 11.5 mph - N/A   Clear
11:40 AM 75.2 °F 57.2 °F 53% 30.18 in 10.0 mi ENE 10.4 mph - N/A   Clear
12:00 PM 75.2 °F 55.4 °F 50% 30.18 in 10.0 mi ENE 9.2 mph - N/A   Clear
12:15 PM 75.2 °F 57.2 °F 53% 30.18 in 10.0 mi ENE 10.4 mph - N/A   Clear
12:40 PM 75.2 °F 59.0 °F 57% 30.17 in 10.0 mi ENE 10.4 mph - N/A   Clear
1:00 PM 75.2 °F 59.0 °F 57% 30.17 in 10.0 mi ENE 9.2 mph - N/A   Clear
1:20 PM 75.2 °F 59.0 °F 57% 30.17 in 10.0 mi East 9.2 mph - N/A   Clear
1:40 PM 75.2 °F 59.0 °F 57% 30.17 in 10.0 mi East 11.5 mph - N/A   Clear
2:00 PM 75.2 °F 59.0 °F 57% 30.16 in - East 11.5 mph - N/A   Clear
2:20 PM 75.2 °F 59.0 °F 57% 30.16 in 10.0 mi East 11.5 mph - N/A   Clear
3:00 PM 75.2 °F 59.0 °F 57% 30.15 in 10.0 mi East 11.5 mph - N/A   Clear
3:20 PM 75.2 °F 59.0 °F 57% 30.14 in 10.0 mi ESE 12.7 mph - N/A   Clear
3:40 PM 75.2 °F 59.0 °F 57% 30.14 in 10.0 mi SE 12.7 mph - N/A   Clear
4:00 PM 75.2 °F 59.0 °F 57% 30.14 in 10.0 mi ESE 11.5 mph - N/A   Clear
4:20 PM 75.2 °F 59.0 °F 57% 30.14 in 10.0 mi SE 11.5 mph - N/A   Clear
4:40 PM 75.2 °F 60.8 °F 61% 30.14 in 10.0 mi SE 10.4 mph - N/A   Clear
5:00 PM 75.2 °F 59.0 °F 57% 30.13 in 10.0 mi SE 10.4 mph - N/A   Clear
5:20 PM 75.2 °F 59.0 °F 57% 30.13 in 10.0 mi SE 10.4 mph - N/A   Clear
5:40 PM 73.4 °F 59.0 °F 61% 30.13 in 10.0 mi SE 9.2 mph - N/A   Clear
6:00 PM 73.4 °F 59.0 °F 61% 30.13 in 10.0 mi SE 9.2 mph - N/A   Clear
6:20 PM 73.4 °F 60.8 °F 65% 30.13 in 10.0 mi ESE 9.2 mph - N/A   Clear
6:40 PM 73.4 °F 60.8 °F 65% 30.13 in 10.0 mi ESE 10.4 mph - N/A   Clear
7:00 PM 73.4 °F 60.8 °F 65% 30.13 in 10.0 mi East 9.2 mph - N/A   Clear
7:20 PM 73.4 °F 60.8 °F 65% 30.13 in 10.0 mi East 10.4 mph - N/A   Clear
7:40 PM 73.4 °F 60.8 °F 65% 30.14 in 10.0 mi East 11.5 mph - N/A   Clear
8:00 PM 73.4 °F 60.8 °F 65% 30.14 in 10.0 mi East 10.4 mph - N/A   Clear
8:20 PM 73.4 °F 60.8 °F 65% 30.14 in 10.0 mi East 10.4 mph - N/A   Clear
8:40 PM 73.4 °F 60.8 °F 65% 30.14 in 10.0 mi East 10.4 mph - N/A   Clear
9:00 PM 73.4 °F 60.8 °F 65% 30.15 in 10.0 mi ESE 9.2 mph - N/A   Clear
9:20 PM 73.4 °F 60.8 °F 65% 30.15 in 10.0 mi East 10.4 mph - N/A   Clear
9:40 PM 73.4 °F 60.8 °F 65% 30.15 in 10.0 mi East 11.5 mph - N/A   Clear
10:00 PM 73.4 °F 62.6 °F 69% 30.16 in 10.0 mi East 11.5 mph - N/A   Clear
10:20 PM 73.4 °F 60.8 °F 65% 30.17 in 10.0 mi ESE 11.5 mph - N/A   Clear
10:40 PM 73.4 °F 62.6 °F 69% 30.17 in 10.0 mi East 12.7 mph - N/A   Clear
11:20 PM 73.4 °F 60.8 °F 65% 30.17 in 10.0 mi ESE 12.7 mph - N/A   Clear
11:40 PM 73.4 °F 60.8 °F 65% 30.17 in 10.0 mi East 11.5 mph - N/A   Clear